This is the latest recevied weather packets stored in our database for station/object K1ZK-13. If no packets are shown the sender has not sent any weather packets the latest 10 day(s).
| Time | Temp. | Humidity | Pressure | Rain* | Wind** | Luminosity | Snow |
|---|---|---|---|---|---|---|---|
| 1778106428 | 6.67° C | 99% | 1009.1 hPa | 0 mm | - | 36 W/m² | - |
| 1778106123 | 6.67° C | 99% | 1009 hPa | 0 mm | - | 36 W/m² | - |
| 1778105822 | 6.67° C | 99% | 1008.9 hPa | 0 mm | - | 35 W/m² | - |
| 1778105520 | 6.67° C | 99% | 1008.9 hPa | 0 mm | - | 24 W/m² | - |
| 1778105216 | 6.67° C | 99% | 1009.1 hPa | 0 mm | - | 25 W/m² | - |
| 1778104911 | 6.67° C | 99% | 1009 hPa | 0 mm | - | 22 W/m² | - |
| 1778104303 | 6.67° C | 99% | 1009 hPa | 0 mm | - | 49 W/m² | - |
| 1778104000 | 6.67° C | 99% | 1009 hPa | 0 mm | - | 49 W/m² | - |
| 1778103698 | 6.67° C | 99% | 1009 hPa | 0 mm | - | 58 W/m² | - |
| 1778102181 | 6.67° C | 99% | 1008.6 hPa | 1.78 mm | - | 64 W/m² | - |
| 1778101878 | 6.67° C | 99% | 1008.6 hPa | 1.78 mm | - | 64 W/m² | - |
| 1778101575 | 6.67° C | 99% | 1008.5 hPa | 1.78 mm | - | 64 W/m² | - |
| 1778100361 | 6.11° C | 99% | 1008.8 hPa | 0 mm | - | 65 W/m² | - |
| 1778100058 | 6.11° C | 99% | 1008.9 hPa | 4.32 mm | - | 65 W/m² | - |
| 1778099756 | 6.11° C | 99% | 1008.9 hPa | 4.32 mm | - | 71 W/m² | - |
| 1778098240 | 6.11° C | 99% | 1008.6 hPa | 0 mm | - | 51 W/m² | - |
| 1778097937 | 6.11° C | 99% | 1008.7 hPa | 0 mm | - | 51 W/m² | - |
| 1778097634 | 6.11° C | 99% | 1008.6 hPa | 1.78 mm | - | 51 W/m² | - |
| 1778097330 | 6.11° C | 99% | 1008.6 hPa | 1.78 mm | - | 41 W/m² | - |
| 1778097027 | 6.11° C | 99% | 1008.6 hPa | 0 mm | - | 53 W/m² | - |
| 1778096725 | 6.11° C | 99% | 1008.6 hPa | 0 mm | - | 53 W/m² | - |
| 1778095815 | 6.67° C | 99% | 1008.6 hPa | 0 mm | - | 55 W/m² | - |
| 1778095512 | 6.67° C | 99% | 1008.4 hPa | 0 mm | - | 51 W/m² | - |
| 1778095208 | 6.67° C | 99% | 1008.3 hPa | 1.27 mm | - | 80 W/m² | - |
| 1778094905 | 6.67° C | 99% | 1008.5 hPa | 1.27 mm | - | 92 W/m² | - |
* Rain latest hour (hover to see other rain measurements)
** Current wind speed in m/s (hover to see current wind gust speed)